Date String (YYYY-MM-DD hh:mm:ss) UTC,Instrument flags,Ambient pressure (hPa),Sample flow (lpm),Bypass flow (lpm),Sample temperature (°C),Ambient temperature (°C),ASC tube jacket temperature (°C),LED temperature (°C),Box temperature (°C),Sample RH (%),Span deviation,Mass concentration (μg/m³),Mass concentration (μg/m³),Mass concentration (μg/m³)
DateTimeUTC,F1_M11,P_M11,Q1_M11,Q2_M11,T1_M11,T2_M11,T3_M11,T4_M11,T5_M11,U1_M11,ZSPAN_M11,X0_M11,X2_M11,X1_M11
2022-04-26 11:00:00,,0829.6,4.99,0.00,23.2,22.2,00.0,32.3,24.9,14.3,0000.0,0008.27,0004.03,0003.39
2022-04-26 11:01:00,,0829.6,5.01,0.00,23.2,22.1,00.0,32.2,24.9,14.2,0000.0,0008.33,0004.07,0003.40
2022-04-26 11:02:00,,0829.6,5.00,0.00,23.2,22.1,00.0,32.2,24.9,14.3,0000.0,0008.26,0004.07,0003.41
2022-04-26 11:03:00,,0829.6,4.99,0.00,23.2,22.1,00.0,32.2,24.9,14.2,0000.0,0008.06,0004.01,0003.39
2022-04-26 11:04:00,,0829.5,5.00,0.00,23.2,22.2,00.0,32.2,24.9,14.3,0000.0,0007.36,0003.98,0003.39
2022-04-26 11:05:00,,0829.6,5.00,0.00,23.2,22.2,00.0,32.2,24.9,14.3,0000.0,0007.49,0004.01,0003.40
2022-04-26 11:06:00,,0829.6,5.01,0.00,23.1,22.1,00.0,32.2,24.9,14.3,0000.0,0007.48,0004.01,0003.40
2022-04-26 11:07:00,,0829.6,5.00,0.00,23.1,22.1,00.0,32.2,24.9,14.2,0000.0,0007.45,0004.01,0003.43
2022-04-26 11:08:00,,0829.5,5.00,0.00,23.1,22.1,00.0,32.2,24.9,14.2,0000.0,0007.16,0003.99,0003.46
2022-04-26 11:09:00,,0829.6,5.00,0.00,23.1,22.1,00.0,32.2,24.9,14.3,0000.0,0007.51,0003.98,0003.48
2022-04-26 11:10:00,,0829.6,4.99,0.00,23.1,22.1,00.0,32.2,24.9,14.3,0000.0,0007.71,0003.97,0003.50
2022-04-26 11:11:00,,0829.6,5.00,0.00,23.1,22.1,00.0,32.2,24.9,14.3,0000.0,0007.70,0003.99,0003.51
2022-04-26 11:12:00,,0829.6,5.00,0.00,23.1,22.1,00.0,32.2,24.9,14.3,0000.0,0007.68,0003.98,0003.52
2022-04-26 11:13:00,,0829.5,5.00,0.00,23.1,22.1,00.0,32.1,24.9,14.3,0000.0,0007.70,0003.98,0003.52
2022-04-26 11:14:00,,0829.5,5.02,0.00,23.1,22.1,00.0,32.1,24.8,14.3,0000.0,0008.01,0004.00,0003.53
2022-04-26 11:15:00,,0829.5,5.00,0.00,23.1,22.0,00.0,32.1,24.8,14.3,0000.0,0008.34,0004.07,0003.54
2022-04-26 11:16:00,,0829.5,5.00,0.00,23.1,22.0,00.0,32.1,24.8,14.3,0000.0,0008.18,0004.04,0003.54
2022-04-26 11:17:00,,0829.5,5.00,0.00,23.1,22.0,00.0,32.1,24.8,14.3,0000.0,0008.20,0004.04,0003.56
2022-04-26 11:18:00,,0829.5,5.00,0.00,23.0,22.0,00.0,32.1,24.7,14.3,0000.0,0008.30,0004.06,0003.56
2022-04-26 11:19:00,,0829.5,5.00,0.00,23.0,22.0,00.0,32.1,24.8,14.3,0000.0,0008.27,0004.07,0003.54
2022-04-26 11:20:00,,0829.5,5.00,0.00,23.0,22.0,00.0,32.1,24.8,14.3,0000.0,0007.95,0004.07,0003.53
2022-04-26 11:21:00,,0829.5,5.01,0.00,23.0,22.1,00.0,32.1,24.8,14.3,0000.0,0007.76,0004.08,0003.52
2022-04-26 11:22:00,,0829.5,5.01,0.00,23.0,22.1,00.0,32.1,24.8,14.3,0000.0,0007.81,0004.08,0003.51
2022-04-26 11:23:00,,0829.5,5.00,0.00,23.0,22.1,00.0,32.1,24.8,14.3,0000.0,0007.77,0004.06,0003.51
2022-04-26 11:24:00,,0829.5,4.99,0.00,23.0,22.0,00.0,32.1,24.8,14.3,0000.0,0007.77,0004.06,0003.51
2022-04-26 11:25:00,,0829.5,5.00,0.00,23.0,22.0,00.0,32.0,24.8,14.3,0000.0,0007.56,0004.05,0003.51
2022-04-26 11:26:00,,0829.5,5.00,0.00,23.0,22.0,00.0,32.0,24.7,14.4,0000.0,0007.57,0004.03,0003.52
2022-04-26 11:27:00,,0829.5,5.00,0.00,23.0,22.0,00.0,32.0,24.7,14.3,0000.0,0007.80,0004.06,0003.52
2022-04-26 11:28:00,,0829.6,5.02,0.00,23.0,22.0,00.0,32.0,24.8,14.3,0000.0,0007.80,0004.08,0003.52
2022-04-26 11:29:00,,0829.6,5.00,0.00,23.0,22.0,00.0,32.0,24.8,14.3,0000.0,0007.79,0004.09,0003.52
2022-04-26 11:30:00,,0829.5,5.00,0.00,23.0,22.0,00.0,32.0,24.8,14.3,0000.0,0007.82,0004.08,0003.53
2022-04-26 11:31:00,,0829.5,4.99,0.00,23.0,22.1,00.0,32.0,24.8,14.3,0000.0,0007.79,0004.09,0003.53
2022-04-26 11:32:00,,0829.5,5.00,0.00,23.0,22.1,00.0,32.0,24.8,14.3,0000.0,0007.78,0004.14,0003.55
2022-04-26 11:33:00,,0829.5,5.00,0.00,23.0,22.1,00.0,32.0,24.8,14.2,0000.0,0007.80,0004.16,0003.59
2022-04-26 11:34:00,,0829.5,5.00,0.00,23.0,22.1,00.0,32.0,24.8,14.2,0000.0,0007.98,0004.26,0003.64
2022-04-26 11:35:00,,0829.5,5.00,0.00,23.0,22.0,00.0,32.0,24.8,14.2,0000.0,0008.11,0004.34,0003.69
2022-04-26 11:36:00,,0829.5,5.00,0.00,23.0,22.0,00.0,32.0,24.8,14.2,0000.0,0008.07,0004.39,0003.74
2022-04-26 11:37:00,,0829.5,5.00,0.00,23.0,22.0,00.0,32.0,24.8,14.2,0000.0,0007.91,0004.43,0003.79
2022-04-26 11:38:00,,0829.5,5.00,0.00,23.0,22.0,00.0,32.0,24.8,14.2,0000.0,0007.69,0004.43,0003.82
2022-04-26 11:39:00,,0829.5,4.99,0.00,23.0,22.0,00.0,32.0,24.8,14.2,0000.0,0007.75,0004.44,0003.83
2022-04-26 11:40:00,,0829.5,4.99,0.00,23.0,22.0,00.0,32.0,24.8,14.3,0000.0,0007.79,0004.42,0003.82
2022-04-26 11:41:00,,0829.5,5.00,0.00,23.0,22.1,00.0,32.0,24.8,14.2,0000.0,0007.67,0004.39,0003.82
2022-04-26 11:42:00,,0829.5,5.00,0.00,23.0,22.1,00.0,32.0,24.8,14.3,0000.0,0008.17,0004.39,0003.82
2022-04-26 11:43:00,,0829.5,5.00,0.00,23.0,22.1,00.0,32.0,24.8,14.2,0000.0,0008.77,0004.36,0003.82
2022-04-26 11:44:00,,0829.6,5.00,0.00,23.0,22.1,00.0,32.0,24.8,14.2,0000.0,0009.09,0004.38,0003.80
2022-04-26 11:45:00,,0829.5,5.00,0.00,23.0,22.1,00.0,32.0,24.8,14.2,0000.0,0009.48,0004.33,0003.77
2022-04-26 11:46:00,,0829.5,5.00,0.00,23.0,22.1,00.0,32.0,24.8,14.2,0000.0,0009.91,0004.30,0003.75
2022-04-26 11:47:00,,0829.5,5.00,0.00,23.0,22.1,00.0,32.0,24.8,14.2,0000.0,0010.39,0004.30,0003.72
2022-04-26 11:48:00,,0829.6,5.00,0.00,23.0,22.1,00.0,32.0,24.8,14.2,0000.0,0010.98,0004.31,0003.70
2022-04-26 11:49:00,,0829.6,5.00,0.00,23.0,22.1,00.0,32.0,24.9,14.2,0000.0,0011.10,0004.36,0003.70
2022-04-26 11:50:00,,0829.6,5.00,0.00,23.0,22.1,00.0,32.0,24.8,14.2,0000.0,0011.02,0004.36,0003.71
2022-04-26 11:51:00,,0829.6,5.00,0.00,23.0,22.1,00.0,32.0,24.8,14.2,0000.0,0010.96,0004.40,0003.75
2022-04-26 11:52:00,,0829.6,5.00,0.00,23.0,22.1,00.0,32.0,24.8,14.2,0000.0,0011.01,0004.42,0003.78
2022-04-26 11:53:00,,0829.6,5.00,0.00,23.0,22.1,00.0,32.0,24.8,14.2,0000.0,0010.74,0004.48,0003.83
2022-04-26 11:54:00,,0829.6,5.00,0.00,23.0,22.1,00.0,32.0,24.8,14.2,0000.0,0010.11,0004.55,0003.87
2022-04-26 11:55:00,,0829.6,5.01,0.00,23.0,22.1,00.0,32.0,24.7,14.2,0000.0,0009.82,0004.55,0003.90
2022-04-26 11:56:00,,0829.6,5.00,0.00,23.0,22.1,00.0,32.0,24.8,14.2,0000.0,0009.46,0004.58,0003.92
2022-04-26 11:57:00,,0829.6,5.01,0.00,23.0,22.1,00.0,32.0,24.8,14.2,0000.0,0008.84,0004.58,0003.95
2022-04-26 11:58:00,,0829.6,5.00,0.00,22.9,22.1,00.0,32.0,24.8,14.2,0000.0,0008.26,0004.55,0003.95
2022-04-26 11:59:00,,0829.6,5.00,0.00,22.9,22.1,00.0,31.9,24.7,14.2,0000.0,0007.68,0004.53,0003.94
